STARLINK-5058 (55456 NORAD) Tracking and Keplerian Element Data

This shows tracking and keplerian element data for the satellite.

Feedback or suggestion? Click here.




ElementValue
Catalog55456
NameSTARLINK-5058
Epoch Orbit812
Epoch Day85.25001157
Epoch Year2023
RAAN76.7648
Inclination43.0008
Eccentricity0.0001335
Argument of Perigee272.4351
Mean Anonmoly137.4334
Mean Motion15.48908456
Decay Rate-9.014E-05
L11 55456U 23015H 23085.25001157 -.00009014 00000+0 -15715-3 0 9992
L22 55456 43.0008 76.7648 0001335 272.4351 137.4334 15.48908456 8122



Live tracking and technical data element details for STARLINK-5058 (NORAD 55456). STARLINK-5058 can be tracked NOW for your location showing map with azimuth and elevation plus other details from your city location.







IsCatalogInMostPopularTable: catalog: 55456, numindb: -1

Insert: records affected: 1


GetName: 55456 STARLINK-5058

Hit Count: inserted at: Tue, 28 Mar 2023 03:26:51 GMT